Regional Weather Roundup
Issued by NWS

Home | Current Version | Previous Version | Text Only | Print | Product List | Glossary Off
Versions: 1 2 3 4 5 6 7 8 9 10 11 12 13 14 15 16 17 18 19 20 21 22 23 24 25 26 27 28 29 30 31 32 33 34 35 36 37 38 39 40 41 42 43 44 45 46 47 48 49 50

000
ASUS43 KIND 221659
RWRIN

WEATHER ROUNDUP FOR INDIANA
NATIONAL WEATHER SERVICE INDIANAPOLIS IN
1200 PM EST WED NOV 22 2017

NOTE: "FAIR" INDICATES FEW OR NO CLOUDS BELOW 12,000 FEET WITH NO
SIGNIFICANT WEATHER AND/OR OBSTRUCTIONS TO VISIBILITY.

* - STATION DOES NOT REPORT WEATHER SUCH AS PRECIPITATION OR FOG.

+ - STATION NOT QUALITY CONTROLLED BY THE NATIONAL WEATHER SERVICE.
    USE DATA WITH CAUTION...ESPECIALLY DEWPOINT AND RELATIVE
    HUMIDITY OBSERVATIONS.

INZ001>003-010>013-019-020-221800-
NORTHWEST INDIANA

CITY           SKY/WX    TMP DP  RH WIND       PRES   REMARKS
KNOX *+        CLOUDY    34  27  75 W8        30.34S WCI  27
MICHIGAN CITY+ CLOUDY    34  23  64 NW6       30.33F WCI  29
MONTICELLO +   SUNNY     33  22  62 W7        30.35S WCI  27
RENSSELAER +   SUNNY     34  21  60 NW6       30.35F WCI  29

$$

LMZ046-743>745-221800-
SOUTHERN LAKE MICHIGAN

STATION/POSITION TIME  TEMP    WIND        PRES    WAVE
                       AIR SEA DIR/SP/G            HT
                 (UTC) (F)     (DEG/KT/KT) (MB)    (FT)
BURNS HARBOR     1640   31     280/  9/ 13 1028.1S
MICHIGAN CITY    1630   33     260/ 13/ 15   N/A

$$

INZ004-005-014>016-021>024-221800-
NORTH CENTRAL INDIANA

CITY           SKY/WX    TMP DP  RH WIND       PRES   REMARKS
ELKHART        CLOUDY    34  19  55 N5        30.31S WCI  30
GOSHEN         CLOUDY    33  18  53 W6        30.31S WCI  28
PERU/GRISSOM   PTSUNNY   36  25  64 W5        30.32F WCI  32
SOUTH BEND     CLOUDY    33  22  63 NW6       30.32F WCI  28
WARSAW +       CLOUDY    32  21  64 N5        30.32S WCI  27

$$

INZ006>009-017-018-025>027-221800-
NORTHEAST INDIANA

CITY           SKY/WX    TMP DP  RH WIND       PRES   REMARKS
AUBURN +       CLOUDY    34  19  55 N8        30.31S WCI  27
FORT WAYNE     PTSUNNY   35  21  56 NW7       30.32S WCI  29
KENDALLVILLE + CLOUDY    32  19  59 N12       30.30S WCI  23

$$

INZ028-029-035-036-043>045-051>053-221800-
WEST CENTRAL INDIANA

CITY           SKY/WX    TMP DP  RH WIND       PRES   REMARKS
CRAWFORDSVL +  SUNNY     32  24  73 NW7       30.35S WCI  25
GREENCASTLE +  SUNNY     32  23  69 NW3       30.35F
LAFAYETTE      SUNNY     34  25  69 N7        30.35F WCI  28
TERRE HAUTE    SUNNY     34  21  59 VRB3      30.37F

$$

INZ030>032-037>040-046>048-054>057-064-065-221800-
CENTRAL INDIANA

CITY           SKY/WX    TMP DP  RH WIND       PRES   REMARKS
ANDERSON       MOSUNNY  N/A N/A N/A NW12      30.31
COLUMBUS       MOSUNNY   36  25  64 NW7       30.34F WCI  30
FRANKFORT +    SUNNY     35  26  68 NW3       30.35F
GREENWOOD *+   MOSUNNY   39  25  56 CALM      30.33F
INDIANAPOLIS   MOSUNNY   36  23  59 CALM      30.34F
-EAGLE CREEK   SUNNY     36  23  59 N6        30.33S WCI  31
KOKOMO +       SUNNY     32  24  72 NW7       30.34S WCI  26
MT COMFORT *+  MOSUNNY   36  27  69 N5        30.32F WCI  32
SHELBYVILLE    MOSUNNY   37  22  54 NW5       30.32F WCI  33

$$

INZ033-034-041-042-049-050-058-059-221800-
EAST CENTRAL INDIANA

CITY           SKY/WX    TMP DP  RH WIND       PRES   REMARKS
MUNCIE         PTSUNNY   35  22  58 N8        30.30F WCI  29
RICHMOND +     CLOUDY    32  25  74 CALM      30.29F

$$

INZ060-061-067>069-081>083-085>088-221800-
SOUTHWEST INDIANA

CITY           SKY/WX    TMP DP  RH WIND       PRES   REMARKS
EVANSVILLE     SUNNY     37  22  54 NW6       30.37F WCI  32
HUNTINGBURG +  SUNNY     37  24  59 VRB5      30.35F WCI  33

$$

INZ062-063-066-070>080-084-089>092-221800-
SOUTH CENTRAL AND SOUTHEAST INDIANA

CITY           SKY/WX    TMP DP  RH WIND       PRES   REMARKS
BLOOMINGTON    SUNNY     36  22  56 MISG      30.33F
MADISON *+     MOSUNNY   37  23  56 CALM      30.33F
SEYMOUR +      SUNNY     39  25  56 N3        30.33F

$$




USA.gov is the U.S. government's official web portal to all federal, state and local government web resources and services.